loading
DOY 175 | 2024-06-23T10:40:43Z

THOR ABLESTAR DEB, 530

Orbit data source: Space-Track

THOR ABLESTAR DEB, 530 is space debris in LEO originally from a launch on Thu, 29 Jun 1961 UTC launched from the Air Force Eastern Test Range (AFETR). Debris objects in space refer to the collection of defunct objects orbiting the Earth. Examples of debris include non-operational satellites, rocket bodies, and fragments generated from explosions, collisions, or faulty payload assembly.

Loading next visibility...
Loading greatness...
THOR ABLESTAR DEB details
NORAD ID530
COSPAR ID
1961-015FU
Orbit
LEO
Last TLE update15 hours ago
Origin
Flag of USUSAF SSD (US)
ManufacturerUnknown
BusUnknown
MotorUnknown
MassWet unknown, Dry mass unknown
Launch date (UTC)
1961-06-29 (63 years ago)
Launch vehicleUnknown
Launch site
Air Force Eastern Test Range (AFETR)
Object type
Payload
Rocket body
Debris
Radar Cross SectionSmall (<0.1 m²)
Predictive object data (real-time)
Latitude-24.23184°
Longitude-66.27533°
Altitude937.378 km
Speed7.367 km/s
Apparent Right ascension09h 42m 51s
Apparent Declination-31° 22' 52"
Sunlit
Object is in daylight
Predictive observer data (real-time)
Local Sidereal Time21:48:37
Azimuth8.256° NNE
Elevation-81.385°
Doppler factor1
Orbital elements
Apogee956.613 km
Perigee835.482 km
Semi-major axis7,274.185 km
Eccentricity0.0083261
Inclination66.8805°
RAAN315.145°
Arg. of periapsis328.4322°
True anomaly31.67637°
Mean anomaly31.178°
Mean motion3.49838 °/min
BSTAR0.000152
Period102.9 mins
Definitive object data (Epoch: 2024-06-22T19:57:45.398Z)
Latitude-0.00006°
Longitude104.21635°
Altitude848.062 km
Speed7.455 km/s
True Right ascension21h 00m 34s
True Declination0° 00' 00"
Sunlit
Object was in full shadow at TLE epoch
TLE from 15 hours ago
0 THOR ABLESTAR DEB
1 00530U 61015FU  24174.83177544  .00000148  00000-0  15200-3 0  9992
2 00530  66.8805 315.1450 0083261 328.4322  31.1780 13.98881836206289
Epoch: 2024-06-22T19:57Z
No data available

THOR ABLESTAR DEB Visibility forecast

Observer location: 39.9160978°, -105.1181434, 0m alt.

THOR ABLESTAR DEB is not visible in the next 10 days
Span
Click to sort rows by Start time (UTC) header in descending order
Start Az.
Max El. time (UTC)
Max El. Az.
Max El.
End time (UTC)
End Az.